{"data":{"norad_id":67129,"intl_designator":"2025-299AD","name":"STARLINK-36214","alt_names":[],"object_type":"PAYLOAD","status":"ACTIVE","operator":null,"country":"US","launch_date":"2025-12-15","launch_site_code":"AFETR","launch_vehicle":null,"mission":null,"orbit_class":"UNKNOWN","rcs_meters":null,"size_class":null,"mass_kg":null,"dimensions":null,"purposes":["comms"],"wikipedia_slug":null,"has_3d_model":false,"image_url":null,"decayed_at":null,"tle_current":{"epoch":"2026-05-25T04:49:27.588864Z","epoch_age_seconds":71831,"freshness":"FRESH","line1":"1 67129U 25299AD  26145.20101376  .00015840  00000+0  58370-3 0  9993","line2":"2 67129  43.0018  97.2371 0001636 268.6006  91.4658 15.27591234 24813","mean_motion":15.27591234,"eccentricity":0.0001636,"inclination_deg":43.0018,"raan_deg":97.2371,"arg_perigee_deg":268.6006,"mean_anomaly_deg":91.4658,"bstar":0.0005837,"rev_number":2481,"period_min":94.266055470177,"perigee_km":481.89297306633,"apogee_km":484.13794215046,"semimajor_km":6861.1524576084,"source":"CELESTRAK","updated_at":"2026-05-25T13:38:21.478861Z"}}}